Regional Weather Roundup
Issued by NWS Northern Indiana

Home | Current Version | Previous Version | Graphics & Text | Print | Product List | Glossary On
Versions: 1 2 3 4 5 6 7 8 9 10 11 12 13 14 15 16 17 18 19 20 21 22 23 24 25 26 27 28 29 30 31 32 33 34 35 36 37 38 39 40 41 42 43 44 45 46 47 48 49 50
000
ASUS43 KIWX 091310
RWRIWX

KIWX WEATHER ROUNDUP
NATIONAL WEATHER SERVICE NORTHERN INDIANA
800 AM EST TUE FEB 09 2016

NOTE: "FAIR" INDICATES FEW OR NO CLOUDS BELOW 12,000 FEET WITH NO
SIGNIFICANT WEATHER AND/OR OBSTRUCTIONS TO VISIBILITY.

* THESE STATIONS ARE NOT UNDER NWS QUALITY CONTROL. THEY ALSO MAY NOT
  REPORT WEATHER SUCH AS PRECIPITATION OR FOG.

INZ001>027-091400-
NORTHERN INDIANA

CITY           SKY/WX    TMP DP  RH WIND       PRES   REMARKS
GARY*          FLURRIES  21  14  73 W15       29.78R WCI   8
VALPARAISO     LGT SNOW  20  17  88 W12       29.74R WCI   8
MICHIGAN CITY* LGT SNOW  27  27 100 NW13G22   29.73R WCI  16
LAPORTE*       LGT SNOW  26  26 100 NW14      29.71R WCI  14
KNOX*          CLOUDY    21  18  86 W15       29.72S WCI   8
SOUTH BEND     FLURRIES  26  23  88 NW14G24   29.69R WCI  14
GOSHEN         LGT SNOW  26  23  88 W8        29.66R FOG     WCI  18
MONTICELLO*    LGT SNOW  20  15  81 W16       29.75R WCI   6
LOGANSPORT*    LGT SNOW  21  16  79 W12       29.74R WCI   9
ROCHESTER*     LGT SNOW  23  18  80 W15       29.70S WCI  10
WARSAW*        LGT SNOW  23  19  86 W16       29.67R WCI  10
ANGOLA*        CLOUDY    28  27  93 W7        29.60R WCI  21
FORT WAYNE     LGT SNOW  26  20  77 W17       29.67R WCI  13
HUNTINGTON*    LGT SNOW  22  17  80 W10G20    29.68R WCI  11
PERU/GRISSOM   LGT SNOW  21  19  91 W15       29.70R FOG     WCI   8
MARION*        LGT SNOW  21  14  73 W18       29.71S WCI   6

$$
INZ028>050-091400-
CENTRAL INDIANA

CITY           SKY/WX    TMP DP  RH WIND       PRES   REMARKS
LAFAYETTE      FLURRIES  19  15  84 W13       29.78R WCI   6
KOKOMO*        CLOUDY    21  16  79 W18       29.72R WCI   6
MUNCIE*        LGT SNOW  22  17  81 W12       29.71R WCI  10
INDIANAPOLIS   FLURRIES  20  15  81 W10       29.75S WCI   9

$$
MIZ043>046-050>051-056>058-064>065-071>073-077>080-091400-
SOUTHWEST LOWER MICHIGAN

CITY           SKY/WX    TMP DP  RH WIND       PRES   REMARKS
BATTLE CREEK   CLOUDY    27  23  85 NW13      29.62R WCI  16
BENTON HARBOR  LGT SNOW  28  22  78 NW14G22   29.69R WCI  17
COLDWATER*     CLOUDY    29  27  89 NW9       29.60R WCI  21
HILLSDALE*     CLOUDY    29  29 100 W8        29.57R FOG     WCI  21
HOLLAND        CLOUDY    27  20  75 NW12G18   29.67R WCI  17
GRAND RAPIDS   CLOUDY    26  21  81 NW12      29.64R WCI  16
KALAMAZOO      CLOUDY    27  22  81 NW12      29.64R WCI  17
STURGIS*       CLOUDY    28  26  93 NW8       29.62R WCI  19
THREE RIVERS*  CLOUDY    28  25  88 NW12G17   29.65R WCI  18

$$
OHZ001>008-015>018-024>025-091400-
NORTHWEST OHIO

CITY           SKY/WX    TMP DP  RH WIND       PRES   REMARKS
DEFIANCE       LGT SNOW  28  24  85 W8        29.63R FOG     WCI  20
FINDLAY        CLOUDY    28  22  78 W17       29.62R WCI  16
TOLEDO EXPRESS LGT SNOW  28  26  92 SW13      29.60R VSB 3/4 WCI  17
TOLEDO METCALF LGT SNOW  29  25  85 SW14      29.60S VSB 3/4 WCI  18
LIMA           CLOUDY    25  22  88 W16       29.63R WCI  12

$$
AND FOR LAKE MICHIGAN COASTAL AND OPEN LAKE BUOY OBSERVATIONS

STATION/POSITION TEMP    WIND        PRES    VSBY  WAVE
                 AIR SEA DIR/SP/G                  HT/PER
                 (F)     (DEG/KT/KT) (MB)    (MI)  (FT/S)
CALUMET HARBOR    18     300/  9/ 17 1007.3R
MICHIGAN CITY     25     280/ 23/ 26   N/A
BURNS HARBOR      23     300/ 18/ 23 1007.5R
SAINT JOSEPH      28     320/ 20/ 24 1006.1S

$$
&&



USA.gov is the U.S. government's official web portal to all federal, state and local government web resources and services.